{"data":{"norad_id":56170,"intl_designator":"2023-050J","name":"BB 2","alt_names":[],"object_type":"PAYLOAD","status":"ACTIVE","operator":null,"country":"US","launch_date":"2023-04-02","launch_site_code":"AFWTR","launch_vehicle":null,"mission":null,"orbit_class":"UNKNOWN","rcs_meters":null,"size_class":null,"mass_kg":null,"dimensions":null,"purposes":[],"wikipedia_slug":null,"has_3d_model":false,"image_url":null,"decayed_at":null,"tle_current":{"epoch":"2026-09-21T13:17:25.227744Z","epoch_age_seconds":95827,"freshness":"FRESH","line1":"1 56170U 23050J   26264.55376421  .00000378  00000+0  10221-3 0  9998","line2":"2 56170  81.0046 338.4468 0007784  15.1713 344.9709 14.46168033175476","mean_motion":14.46168033,"eccentricity":0.0007784,"inclination_deg":81.0046,"raan_deg":338.4468,"arg_perigee_deg":15.1713,"mean_anomaly_deg":344.9709,"bstar":0.00010221,"rev_number":17547,"period_min":99.573491263861,"perigee_km":732.65240415938,"apogee_km":743.73110476432,"semimajor_km":7116.3287544619,"source":"CELESTRAK","updated_at":"2026-09-22T09:00:25.732947Z"}}}